レモン彗星

C/2023 H5 ( Lemmon )

English version
Home page
Updated on May 27, 2025

---------------------------------------------------------------------

・ プロフィール

発見日 2023年4月19日
発見光度 20.2等
発見者 Mt. Lemmon Survey

・ 写真集

・ 軌道要素

Epoch 2025 May 5.0 TT = JDT 2460800.5
T 2025 June 30.25995 TT                                 Pike
q   4.3126040            (2000.0)            P               Q
z  -0.0001080      Peri.   60.09671     -0.42536741     +0.83574353
 +/-0.0000006      Node   159.47855     -0.07943605     -0.41670990
e   1.0004657      Incl.   97.85542     +0.90152786     +0.35761099
From 1175 observations 2022 Dec. 1-2025 Feb. 27, mean residual 0".6.

・ 星図

・ 光度変化

        m1 = 2.5 + 5 logΔ + 15.0 log r           [    ,-360]  (              〜2024年 7月 5日)
        m1 = 6.5 + 5 logΔ + 10.0 log r(t + 120)  [-360,    ]  (2024年 7月 5日〜              )

---------------------------------------------------------------------

軌道要素はM.P.E.C. 2025-D254に掲載されたものです。
星図はステラナビゲータ Ver.11 (アストロアーツ) で作成したものです。
光度グラフはComet for Windowsで作成したものです。

---------------------------------------------------------------------

Copyright(C) Seiichi Yoshida (comet@aerith.net). All rights reserved.